TimeCST,TemperatureF,Dew PointF,Humidity,Sea Level PressureIn,VisibilityMPH,Wind Direction,Wind SpeedMPH,Gust SpeedMPH,PrecipitationIn,Events,Conditions,WindDirDegrees,DateUTC
12:15 AM,34.9,32.0,89,30.18,10.0,Calm,Calm,-,N/A,,Clear,0,2012-11-25 06:15:00
12:35 AM,33.8,31.1,90,30.17,10.0,Calm,Calm,-,N/A,,Clear,0,2012-11-25 06:35:00
12:55 AM,33.3,31.1,92,30.17,10.0,Calm,Calm,-,N/A,,Clear,0,2012-11-25 06:55:00
1:15 AM,33.3,31.5,93,30.16,10.0,Calm,Calm,-,N/A,,Clear,0,2012-11-25 07:15:00
1:35 AM,33.8,31.6,92,30.16,10.0,Calm,Calm,-,N/A,,Clear,0,2012-11-25 07:35:00
1:55 AM,32.5,30.7,93,30.16,10.0,Calm,Calm,-,N/A,,Clear,0,2012-11-25 07:55:00
2:15 AM,32.9,30.9,92,30.15,10.0,Calm,Calm,-,N/A,,Clear,0,2012-11-25 08:15:00
2:35 AM,32.9,30.7,92,30.15,10.0,Calm,Calm,-,N/A,,Clear,0,2012-11-25 08:35:00
2:55 AM,32.0,30.0,92,30.15,10.0,ESE,3.5,-,N/A,,Clear,120,2012-11-25 08:55:00
3:15 AM,32.2,30.2,92,30.14,10.0,Calm,Calm,-,N/A,,Clear,0,2012-11-25 09:15:00
3:35 AM,32.7,31.1,94,30.14,10.0,Calm,Calm,-,N/A,,Clear,0,2012-11-25 09:35:00
3:55 AM,33.1,30.7,91,30.13,10.0,Calm,Calm,-,N/A,,Clear,0,2012-11-25 09:55:00
4:15 AM,32.7,30.2,90,30.12,10.0,Calm,Calm,-,N/A,,Clear,0,2012-11-25 10:15:00
4:35 AM,32.2,30.2,92,30.12,10.0,Calm,Calm,-,N/A,,Clear,0,2012-11-25 10:35:00
4:55 AM,32.0,30.0,92,30.13,10.0,Calm,Calm,-,N/A,,Clear,0,2012-11-25 10:55:00
5:15 AM,32.2,30.4,93,30.13,10.0,SE,3.5,-,N/A,,Clear,130,2012-11-25 11:15:00
5:35 AM,32.0,30.0,92,30.12,10.0,ESE,3.5,-,N/A,,Clear,120,2012-11-25 11:35:00
5:55 AM,32.5,30.2,91,30.12,10.0,ESE,3.5,-,N/A,,Clear,110,2012-11-25 11:55:00
6:15 AM,32.4,29.8,90,30.12,10.0,SE,3.5,-,N/A,,Clear,130,2012-11-25 12:15:00
6:35 AM,34.2,29.3,82,30.13,10.0,SE,3.5,-,N/A,,Clear,130,2012-11-25 12:35:00
6:55 AM,35.1,29.7,81,30.14,10.0,SE,3.5,-,N/A,,Clear,130,2012-11-25 12:55:00
7:15 AM,36.0,29.7,78,30.14,10.0,SE,3.5,-,N/A,,Clear,130,2012-11-25 13:15:00
7:35 AM,37.9,30.4,74,30.14,10.0,SE,3.5,-,N/A,,Clear,140,2012-11-25 13:35:00
7:55 AM,40.3,31.5,71,30.15,10.0,SE,4.6,-,N/A,,Clear,140,2012-11-25 13:55:00
8:15 AM,43.0,32.2,66,30.15,10.0,SSE,3.5,-,N/A,,Clear,150,2012-11-25 14:15:00
8:35 AM,45.0,32.0,60,30.16,10.0,South,4.6,-,N/A,,Clear,170,2012-11-25 14:35:00
8:55 AM,46.8,32.2,57,30.16,10.0,SSE,4.6,-,N/A,,Clear,160,2012-11-25 14:55:00
9:15 AM,48.9,32.5,53,30.16,10.0,South,6.9,-,N/A,,Clear,170,2012-11-25 15:15:00
9:35 AM,50.9,32.7,50,30.16,10.0,SSE,8.1,-,N/A,,Clear,150,2012-11-25 15:35:00
9:55 AM,53.2,32.9,46,30.16,10.0,South,8.1,-,N/A,,Clear,180,2012-11-25 15:55:00
10:15 AM,54.7,33.3,44,30.15,10.0,South,5.8,-,N/A,,Clear,170,2012-11-25 16:15:00
10:35 AM,55.0,33.3,44,30.15,10.0,South,8.1,-,N/A,,Clear,190,2012-11-25 16:35:00
10:55 AM,56.7,34.0,42,30.14,10.0,SE,5.8,-,N/A,,Clear,140,2012-11-25 16:55:00
11:15 AM,59.4,35.6,41,30.13,10.0,South,9.2,-,N/A,,Clear,190,2012-11-25 17:15:00
11:35 AM,60.3,35.8,40,30.12,10.0,South,5.8,-,N/A,,Clear,190,2012-11-25 17:35:00
11:55 AM,62.1,35.2,37,30.10,10.0,SSE,8.1,-,N/A,,Clear,160,2012-11-25 17:55:00
12:15 PM,62.8,34.9,35,30.09,10.0,SSW,9.2,-,N/A,,Clear,200,2012-11-25 18:15:00
12:35 PM,64.2,33.4,32,30.08,10.0,South,9.2,-,N/A,,Clear,170,2012-11-25 18:35:00
12:55 PM,64.9,33.8,31,30.06,10.0,South,8.1,-,N/A,,Clear,180,2012-11-25 18:55:00
1:15 PM,65.8,34.9,32,30.05,10.0,SSE,4.6,-,N/A,,Clear,160,2012-11-25 19:15:00
1:35 PM,66.4,34.5,31,30.04,10.0,South,6.9,-,N/A,,Clear,180,2012-11-25 19:35:00
1:55 PM,67.1,34.9,30,30.03,10.0,SSE,6.9,-,N/A,,Clear,160,2012-11-25 19:55:00
2:15 PM,67.5,35.2,30,30.02,10.0,SE,8.1,-,N/A,,Clear,140,2012-11-25 20:15:00
2:35 PM,67.5,34.7,30,30.01,10.0,South,5.8,-,N/A,,Clear,170,2012-11-25 20:35:00
2:55 PM,67.5,35.8,31,30.00,10.0,South,8.1,-,N/A,,Clear,170,2012-11-25 20:55:00
3:15 PM,67.5,36.7,32,30.00,10.0,South,8.1,-,N/A,,Clear,190,2012-11-25 21:15:00
3:35 PM,67.1,37.2,33,29.99,10.0,South,4.6,-,N/A,,Clear,170,2012-11-25 21:35:00
3:55 PM,66.6,37.8,35,29.99,10.0,SSE,8.1,-,N/A,,Clear,160,2012-11-25 21:55:00
4:15 PM,65.8,38.1,36,29.99,10.0,South,5.8,-,N/A,,Clear,180,2012-11-25 22:15:00
4:35 PM,64.9,38.3,37,29.99,10.0,SSE,9.2,-,N/A,,Clear,160,2012-11-25 22:35:00
4:55 PM,63.5,38.5,40,29.99,10.0,SSE,6.9,-,N/A,,Clear,150,2012-11-25 22:55:00
5:15 PM,61.7,38.7,43,29.98,10.0,SE,5.8,-,N/A,,Clear,140,2012-11-25 23:15:00
5:35 PM,59.9,38.5,45,29.99,10.0,SE,5.8,-,N/A,,Clear,140,2012-11-25 23:35:00
5:55 PM,59.2,38.3,46,29.99,10.0,SE,5.8,-,N/A,,Clear,140,2012-11-25 23:55:00
6:15 PM,59.0,37.9,46,29.99,10.0,SE,5.8,-,N/A,,Clear,140,2012-11-26 00:15:00
6:35 PM,58.1,37.9,47,29.99,10.0,SE,4.6,-,N/A,,Clear,130,2012-11-26 00:35:00
6:55 PM,57.4,37.9,48,29.99,10.0,SE,4.6,-,N/A,,Clear,140,2012-11-26 00:55:00
7:15 PM,57.6,37.8,48,29.99,10.0,SSE,5.8,-,N/A,,Clear,150,2012-11-26 01:15:00
7:35 PM,56.7,38.3,50,29.99,10.0,SE,4.6,-,N/A,,Clear,140,2012-11-26 01:35:00
7:55 PM,56.5,38.7,51,29.99,10.0,SE,4.6,-,N/A,,Clear,140,2012-11-26 01:55:00
8:15 PM,55.9,39.4,54,29.99,10.0,SE,6.9,-,N/A,,Clear,140,2012-11-26 02:15:00
8:35 PM,56.3,40.1,55,29.99,10.0,SE,5.8,-,N/A,,Clear,140,2012-11-26 02:35:00
8:55 PM,55.4,40.1,56,29.99,10.0,SE,4.6,-,N/A,,Clear,130,2012-11-26 02:55:00
9:15 PM,55.8,41.0,58,29.99,10.0,SE,5.8,-,N/A,,Clear,140,2012-11-26 03:15:00
9:35 PM,55.8,41.5,59,30.00,10.0,SE,4.6,-,N/A,,Clear,140,2012-11-26 03:35:00
9:55 PM,55.6,42.3,61,30.00,10.0,SE,3.5,-,N/A,,Clear,140,2012-11-26 03:55:00
10:15 PM,55.4,43.2,63,30.00,10.0,SSE,5.8,-,N/A,,Clear,150,2012-11-26 04:15:00
10:35 PM,55.2,43.9,66,30.00,10.0,SSE,5.8,-,N/A,,Clear,150,2012-11-26 04:35:00
10:55 PM,55.4,44.6,67,30.00,10.0,SE,3.5,-,N/A,,Clear,140,2012-11-26 04:55:00
11:15 PM,55.4,45.1,68,30.01,10.0,SSE,3.5,-,N/A,,Clear,150,2012-11-26 05:15:00
11:35 PM,55.0,45.7,71,30.01,10.0,SSE,4.6,-,N/A,,Clear,150,2012-11-26 05:35:00
11:55 PM,55.2,46.4,72,30.00,10.0,SSE,5.8,-,N/A,,Clear,150,2012-11-26 05:55:00